Time,TemperatureF,DewpointF,PressureIn,WindDirection,WindDirectionDegrees,WindSpeedMPH,WindSpeedGustMPH,Humidity,HourlyPrecipIn,Conditions,Clouds,dailyrainin,SoftwareType,DateUTC
2013-10-26 00:02:00,44.2,31.2,30.09,WSW,248,4.6,4.6,60,0.00,CLR,,0.00,WeatherDisplay:10.37,2013-10-26 05:02:00,
2013-10-26 00:07:00,44.2,31.2,30.09,WSW,248,4.6,4.6,60,0.00,CLR,,0.00,WeatherDisplay:10.37,2013-10-26 05:07:00,
2013-10-26 00:12:00,44.1,31.5,30.09,South,180,4.6,4.7,61,0.00,CLR,,0.00,WeatherDisplay:10.37,2013-10-26 05:12:00,
2013-10-26 00:17:00,44.1,31.5,30.09,SSE,158,8.1,8.1,61,0.00,CLR,,0.00,WeatherDisplay:10.37,2013-10-26 05:17:00,
2013-10-26 00:22:00,44.1,31.5,30.08,ENE,68,5.8,5.8,61,0.00,CLR,,0.00,WeatherDisplay:10.37,2013-10-26 05:22:00,
2013-10-26 00:27:00,44.1,31.5,30.08,South,180,6.9,6.9,61,0.00,CLR,,0.00,WeatherDisplay:10.37,2013-10-26 05:27:00,
2013-10-26 00:32:00,44.1,31.1,30.08,SSE,158,9.2,9.2,60,0.00,CLR,,0.00,WeatherDisplay:10.37,2013-10-26 05:32:00,
2013-10-26 00:37:00,43.9,30.9,30.08,SW,225,6.9,6.9,60,0.00,CLR,,0.00,WeatherDisplay:10.37,2013-10-26 05:37:00,
2013-10-26 00:42:00,44.1,31.1,30.08,South,180,5.8,5.8,60,0.00,CLR,,0.00,WeatherDisplay:10.37,2013-10-26 05:42:00,
2013-10-26 00:47:00,43.7,30.7,30.08,SE,135,11.5,11.5,60,0.00,CLR,,0.00,WeatherDisplay:10.37,2013-10-26 05:47:00,
2013-10-26 00:52:00,43.5,30.5,30.08,ESE,112,9.2,9.2,60,0.00,CLR,,0.00,WeatherDisplay:10.37,2013-10-26 05:52:00,
2013-10-26 00:57:00,43.5,30.5,30.08,SE,135,8.1,8.1,60,0.00,CLR,,0.00,WeatherDisplay:10.37,2013-10-26 05:57:00,
2013-10-26 01:02:00,43.5,31.0,30.07,SSE,158,6.9,6.9,61,0.00,CLR,,0.00,WeatherDisplay:10.37,2013-10-26 06:02:00,
2013-10-26 01:07:00,43.3,30.8,30.07,WSW,248,9.2,9.2,61,0.00,CLR,,0.00,WeatherDisplay:10.37,2013-10-26 06:07:00,
2013-10-26 01:12:00,43.3,30.8,30.07,SW,225,6.9,6.9,61,0.00,CLR,,0.00,WeatherDisplay:10.37,2013-10-26 06:12:00,
2013-10-26 01:17:00,43.3,30.8,30.07,WNW,292,10.4,10.4,61,0.00,CLR,,0.00,WeatherDisplay:10.37,2013-10-26 06:17:00,
2013-10-26 01:22:00,43.0,30.4,30.06,South,180,4.6,4.6,61,0.00,CLR,,0.00,WeatherDisplay:10.37,2013-10-26 06:22:00,
2013-10-26 01:27:00,43.0,30.4,30.06,SSE,158,5.8,5.8,61,0.00,CLR,,0.00,WeatherDisplay:10.37,2013-10-26 06:27:00,
2013-10-26 01:32:00,42.8,30.3,30.06,West,270,2.3,4.9,61,0.00,CLR,,0.00,WeatherDisplay:10.37,2013-10-26 06:32:00,
2013-10-26 01:37:00,43.0,30.4,30.06,South,180,9.2,9.2,61,0.00,CLR,,0.00,WeatherDisplay:10.37,2013-10-26 06:37:00,
2013-10-26 01:42:00,42.6,30.1,30.05,SSE,158,10.4,10.4,61,0.00,CLR,,0.00,WeatherDisplay:10.37,2013-10-26 06:42:00,
2013-10-26 01:47:00,42.6,30.1,30.05,South,180,10.4,10.4,61,0.00,CLR,,0.00,WeatherDisplay:10.37,2013-10-26 06:47:00,
2013-10-26 01:52:00,42.6,30.1,30.05,SW,225,6.9,6.9,61,0.00,CLR,,0.00,WeatherDisplay:10.37,2013-10-26 06:52:00,
2013-10-26 01:57:00,42.6,30.5,30.05,SSW,202,8.1,8.1,62,0.00,CLR,,0.00,WeatherDisplay:10.37,2013-10-26 06:57:00,
2013-10-26 02:02:00,42.6,30.5,30.04,South,180,6.9,6.9,62,0.00,CLR,,0.00,WeatherDisplay:10.37,2013-10-26 07:02:00,
2013-10-26 02:07:00,42.6,30.5,30.04,SE,135,15.0,15.0,62,0.00,CLR,,0.00,WeatherDisplay:10.37,2013-10-26 07:07:00,
2013-10-26 02:12:00,42.4,30.3,30.04,South,180,9.2,9.2,62,0.00,CLR,,0.00,WeatherDisplay:10.37,2013-10-26 07:12:00,
2013-10-26 02:17:00,42.3,30.2,30.04,South,180,10.4,10.4,62,0.00,CLR,,0.00,WeatherDisplay:10.37,2013-10-26 07:17:00,
2013-10-26 02:22:00,42.3,30.2,30.03,SSE,158,10.4,10.4,62,0.00,CLR,,0.00,WeatherDisplay:10.37,2013-10-26 07:22:00,
2013-10-26 02:27:00,42.3,30.2,30.03,WSW,248,10.4,10.4,62,0.00,CLR,,0.00,WeatherDisplay:10.37,2013-10-26 07:27:00,
2013-10-26 02:32:00,42.1,30.0,30.03,South,180,10.4,10.4,62,0.00,CLR,,0.00,WeatherDisplay:10.37,2013-10-26 07:32:00,
2013-10-26 02:37:00,42.3,30.2,30.03,ESE,112,11.5,11.5,62,0.00,CLR,,0.00,WeatherDisplay:10.37,2013-10-26 07:37:00,
2013-10-26 02:42:00,42.3,30.2,30.01,SE,135,4.6,4.9,62,0.00,CLR,,0.00,WeatherDisplay:10.37,2013-10-26 07:42:00,
2013-10-26 02:47:00,42.3,30.2,30.01,SSE,158,6.9,6.9,62,0.00,CLR,,0.00,WeatherDisplay:10.37,2013-10-26 07:47:00,
2013-10-26 02:52:00,42.4,30.3,30.01,SE,135,4.6,4.6,62,0.00,CLR,,0.00,WeatherDisplay:10.37,2013-10-26 07:52:00,
2013-10-26 02:57:00,42.6,30.5,30.01,SW,225,6.9,6.9,62,0.00,CLR,,0.00,WeatherDisplay:10.37,2013-10-26 07:57:00,
2013-10-26 03:02:00,42.6,30.1,30.00,SW,225,4.6,4.9,61,0.00,CLR,,0.00,WeatherDisplay:10.37,2013-10-26 08:02:00,
2013-10-26 03:07:00,42.6,30.1,30.00,SW,225,3.5,4.9,61,0.00,CLR,,0.00,WeatherDisplay:10.37,2013-10-26 08:07:00,
2013-10-26 03:12:00,43.2,30.2,30.00,South,180,3.5,6.2,60,0.00,CLR,,0.00,WeatherDisplay:10.37,2013-10-26 08:12:00,
2013-10-26 03:17:00,43.3,30.4,30.00,NNW,338,11.5,11.5,60,0.00,CLR,,0.00,WeatherDisplay:10.37,2013-10-26 08:17:00,
2013-10-26 03:22:00,43.7,30.7,29.99,West,270,11.5,11.5,60,0.00,CLR,,0.00,WeatherDisplay:10.37,2013-10-26 08:22:00,
2013-10-26 03:27:00,43.5,30.1,29.99,SE,135,9.2,9.2,59,0.00,CLR,,0.00,WeatherDisplay:10.37,2013-10-26 08:27:00,
2013-10-26 03:32:00,43.7,30.3,29.99,West,270,5.8,5.8,59,0.00,CLR,,0.00,WeatherDisplay:10.37,2013-10-26 08:32:00,
2013-10-26 03:37:00,43.7,30.3,29.99,South,180,11.5,11.5,59,0.00,CLR,,0.00,WeatherDisplay:10.37,2013-10-26 08:37:00,
2013-10-26 03:42:00,44.1,30.2,29.98,South,180,13.8,13.8,58,0.00,CLR,,0.00,WeatherDisplay:10.37,2013-10-26 08:42:00,
2013-10-26 03:47:00,44.1,30.2,29.98,SW,225,10.4,10.4,58,0.00,CLR,,0.00,WeatherDisplay:10.37,2013-10-26 08:47:00,
2013-10-26 03:52:00,44.1,30.2,29.98,South,180,17.3,17.3,58,0.00,CLR,,0.00,WeatherDisplay:10.37,2013-10-26 08:52:00,
2013-10-26 03:57:00,44.1,30.2,29.98,South,180,5.8,5.8,58,0.00,CLR,,0.00,WeatherDisplay:10.37,2013-10-26 08:57:00,
2013-10-26 04:02:00,43.9,30.0,29.96,WSW,248,5.8,6.0,58,0.00,CLR,,0.00,WeatherDisplay:10.37,2013-10-26 09:02:00,
2013-10-26 04:07:00,44.1,30.2,29.96,SSW,202,4.6,4.9,58,0.00,CLR,,0.00,WeatherDisplay:10.37,2013-10-26 09:07:00,
2013-10-26 04:12:00,43.9,30.0,29.96,SSW,202,15.0,15.0,58,0.00,CLR,,0.00,WeatherDisplay:10.37,2013-10-26 09:12:00,
2013-10-26 04:17:00,44.1,30.2,29.96,WSW,248,8.1,8.1,58,0.00,CLR,,0.00,WeatherDisplay:10.37,2013-10-26 09:17:00,
2013-10-26 04:22:00,44.2,30.4,29.95,South,180,6.9,6.9,58,0.00,CLR,,0.00,WeatherDisplay:10.37,2013-10-26 09:22:00,
2013-10-26 04:27:00,44.2,30.4,29.95,SE,135,10.4,10.4,58,0.00,CLR,,0.00,WeatherDisplay:10.37,2013-10-26 09:27:00,
2013-10-26 04:32:00,44.2,30.4,29.95,South,180,4.6,5.8,58,0.00,CLR,,0.00,WeatherDisplay:10.37,2013-10-26 09:32:00,
2013-10-26 04:37:00,44.2,30.4,29.95,SW,225,6.9,6.9,58,0.00,CLR,,0.00,WeatherDisplay:10.37,2013-10-26 09:37:00,
2013-10-26 04:42:00,44.2,30.4,29.95,SW,225,9.2,9.2,58,0.00,CLR,,0.00,WeatherDisplay:10.37,2013-10-26 09:42:00,
2013-10-26 04:47:00,44.2,30.4,29.95,South,180,6.9,6.9,58,0.00,CLR,,0.00,WeatherDisplay:10.37,2013-10-26 09:47:00,
2013-10-26 04:52:00,44.2,30.4,29.95,South,180,6.9,6.9,58,0.00,CLR,,0.00,WeatherDisplay:10.37,2013-10-26 09:52:00,
2013-10-26 04:57:00,44.2,30.4,29.95,SE,135,8.1,8.1,58,0.00,CLR,,0.00,WeatherDisplay:10.37,2013-10-26 09:57:00,
2013-10-26 05:02:00,44.2,30.8,29.94,SSW,202,5.8,5.8,59,0.00,CLR,,0.00,WeatherDisplay:10.37,2013-10-26 10:02:00,
2013-10-26 05:07:00,44.2,30.8,29.94,SSW,202,13.8,13.8,59,0.00,CLR,,0.00,WeatherDisplay:10.37,2013-10-26 10:07:00,
2013-10-26 05:12:00,44.6,30.7,29.94,SSE,158,6.9,6.9,58,0.00,CLR,,0.00,WeatherDisplay:10.37,2013-10-26 10:12:00,
2013-10-26 05:17:00,44.8,30.9,29.94,SSE,158,11.5,11.5,58,0.00,CLR,,0.00,WeatherDisplay:10.37,2013-10-26 10:17:00,
2013-10-26 05:22:00,44.6,30.7,29.93,WSW,248,10.4,10.4,58,0.00,CLR,,0.00,WeatherDisplay:10.37,2013-10-26 10:22:00,
2013-10-26 05:27:00,44.8,30.9,29.93,SW,225,10.4,10.4,58,0.00,CLR,,0.00,WeatherDisplay:10.37,2013-10-26 10:27:00,
2013-10-26 05:32:00,44.8,30.9,29.93,SE,135,11.5,11.5,58,0.00,CLR,,0.00,WeatherDisplay:10.37,2013-10-26 10:32:00,
2013-10-26 05:37:00,45.0,31.1,29.93,South,180,10.4,10.4,58,0.00,CLR,,0.00,WeatherDisplay:10.37,2013-10-26 10:37:00,
2013-10-26 05:42:00,45.0,31.1,29.92,South,180,12.8,12.8,58,0.00,CLR,,0.00,WeatherDisplay:10.37,2013-10-26 10:42:00,
2013-10-26 05:47:00,45.1,31.2,29.92,WSW,248,10.5,10.5,58,0.00,CLR,,0.00,WeatherDisplay:10.37,2013-10-26 10:47:00,
2013-10-26 05:52:00,45.5,31.1,29.92,WSW,248,6.9,6.9,57,0.00,CLR,,0.00,WeatherDisplay:10.37,2013-10-26 10:52:00,
2013-10-26 05:57:00,45.3,31.4,29.92,SW,225,8.1,8.1,58,0.00,CLR,,0.00,WeatherDisplay:10.37,2013-10-26 10:57:00,
2013-10-26 06:02:00,45.5,31.1,29.90,South,180,6.9,6.9,57,0.00,CLR,,0.00,WeatherDisplay:10.37,2013-10-26 11:02:00,
2013-10-26 06:07:00,45.5,31.1,29.90,South,180,6.9,6.9,57,0.00,CLR,,0.00,WeatherDisplay:10.37,2013-10-26 11:07:00,
2013-10-26 06:12:00,45.5,31.6,29.90,SSW,202,8.3,8.3,58,0.00,CLR,,0.00,WeatherDisplay:10.37,2013-10-26 11:12:00,
2013-10-26 06:17:00,45.5,31.6,29.90,SSW,202,11.5,11.5,58,0.00,CLR,,0.00,WeatherDisplay:10.37,2013-10-26 11:17:00,
2013-10-26 06:22:00,45.1,31.2,29.91,South,180,8.1,8.1,58,0.00,CLR,,0.00,WeatherDisplay:10.37,2013-10-26 11:22:00,
2013-10-26 06:27:00,45.1,31.7,29.91,ESE,112,12.7,12.7,59,0.00,CLR,,0.00,WeatherDisplay:10.37,2013-10-26 11:27:00,
2013-10-26 06:32:00,45.0,31.5,29.91,WSW,248,12.7,12.7,59,0.00,CLR,,0.00,WeatherDisplay:10.37,2013-10-26 11:32:00,
2013-10-26 06:37:00,45.0,31.5,29.91,SSW,202,11.6,11.6,59,0.00,CLR,,0.00,WeatherDisplay:10.37,2013-10-26 11:37:00,
2013-10-26 06:42:00,45.0,31.5,29.91,South,180,3.5,4.7,59,0.00,CLR,,0.00,WeatherDisplay:10.37,2013-10-26 11:42:00,
2013-10-26 06:47:00,45.0,31.9,29.91,NNW,338,9.2,9.2,60,0.00,CLR,,0.00,WeatherDisplay:10.37,2013-10-26 11:47:00,
2013-10-26 06:52:00,45.0,31.9,29.91,WNW,292,12.1,12.1,60,0.00,CLR,,0.00,WeatherDisplay:10.37,2013-10-26 11:52:00,
2013-10-26 06:57:00,45.0,31.9,29.91,SW,225,8.5,8.5,60,0.00,CLR,,0.00,WeatherDisplay:10.37,2013-10-26 11:57:00,
2013-10-26 07:02:00,45.1,32.1,29.91,WSW,248,4.6,4.7,60,0.00,CLR,,0.00,WeatherDisplay:10.37,2013-10-26 12:02:00,
2013-10-26 07:07:00,45.1,32.1,29.91,NNW,338,8.1,8.1,60,0.00,CLR,,0.00,WeatherDisplay:10.37,2013-10-26 12:07:00,
2013-10-26 07:12:00,45.1,32.1,29.91,South,180,4.6,4.9,60,0.00,CLR,,0.00,WeatherDisplay:10.37,2013-10-26 12:12:00,
2013-10-26 07:17:00,45.3,32.2,29.91,SSE,158,10.4,10.4,60,0.00,CLR,,0.00,WeatherDisplay:10.37,2013-10-26 12:17:00,
2013-10-26 07:22:00,45.5,32.4,29.90,NW,315,6.9,6.9,60,0.00,CLR,,0.00,WeatherDisplay:10.37,2013-10-26 12:22:00,
2013-10-26 07:27:00,45.5,32.4,29.90,South,180,10.4,10.4,60,0.00,CLR,,0.00,WeatherDisplay:10.37,2013-10-26 12:27:00,
2013-10-26 07:32:00,45.3,32.2,29.90,SSE,158,6.9,6.9,60,0.00,CLR,,0.00,WeatherDisplay:10.37,2013-10-26 12:32:00,
2013-10-26 07:37:00,45.5,32.8,29.90,West,270,9.2,9.2,61,0.00,CLR,,0.00,WeatherDisplay:10.37,2013-10-26 12:37:00,
2013-10-26 07:42:00,45.5,32.8,29.89,South,180,8.2,8.2,61,0.00,CLR,,0.00,WeatherDisplay:10.37,2013-10-26 12:42:00,
2013-10-26 07:47:00,45.7,33.0,29.89,SE,135,8.1,8.1,61,0.00,CLR,,0.00,WeatherDisplay:10.37,2013-10-26 12:47:00,
2013-10-26 07:52:00,45.7,33.0,29.89,South,180,11.5,11.5,61,0.00,CLR,,0.00,WeatherDisplay:10.37,2013-10-26 12:52:00,
2013-10-26 07:57:00,45.9,33.2,29.89,South,180,9.2,9.2,61,0.00,CLR,,0.00,WeatherDisplay:10.37,2013-10-26 12:57:00,
2013-10-26 08:03:00,45.7,33.0,29.90,SW,225,15.0,15.0,61,0.00,CLR,,0.00,WeatherDisplay:10.37,2013-10-26 13:03:00,
2013-10-26 08:08:00,45.9,33.2,29.90,SE,135,5.8,5.8,61,0.00,CLR,,0.00,WeatherDisplay:10.37,2013-10-26 13:08:00,
2013-10-26 08:13:00,45.9,33.6,29.90,South,180,4.6,4.6,62,0.00,CLR,,0.00,WeatherDisplay:10.37,2013-10-26 13:13:00,
2013-10-26 08:18:00,45.9,33.6,29.90,SW,225,5.8,5.8,62,0.00,CLR,,0.00,WeatherDisplay:10.37,2013-10-26 13:18:00,
2013-10-26 08:23:00,45.7,33.4,29.88,NNW,338,6.9,6.9,62,0.00,CLR,,0.00,WeatherDisplay:10.37,2013-10-26 13:23:00,
2013-10-26 08:28:00,45.9,33.6,29.88,SW,225,3.5,4.0,62,0.00,CLR,,0.00,WeatherDisplay:10.37,2013-10-26 13:28:00,
2013-10-26 08:33:00,46.0,33.7,29.88,South,180,4.6,4.6,62,0.00,CLR,,0.00,WeatherDisplay:10.37,2013-10-26 13:33:00,
2013-10-26 08:38:00,46.2,33.9,29.88,West,270,9.2,9.2,62,0.00,CLR,,0.00,WeatherDisplay:10.37,2013-10-26 13:38:00,
2013-10-26 08:43:00,46.2,33.9,29.88,WSW,248,9.2,9.2,62,0.00,CLR,,0.00,WeatherDisplay:10.37,2013-10-26 13:43:00,
2013-10-26 08:48:00,46.4,34.1,29.88,South,180,6.9,6.9,62,0.00,CLR,,0.00,WeatherDisplay:10.37,2013-10-26 13:48:00,
2013-10-26 08:53:00,46.6,34.2,29.88,SE,135,4.6,4.6,62,0.00,CLR,,0.00,WeatherDisplay:10.37,2013-10-26 13:53:00,
2013-10-26 08:58:00,46.9,34.6,29.88,SSE,158,6.9,6.9,62,0.00,CLR,,0.00,WeatherDisplay:10.37,2013-10-26 13:58:00,
2013-10-26 09:03:00,47.1,34.8,29.93,SW,225,13.8,13.8,62,0.00,CLR,,0.00,WeatherDisplay:10.37,2013-10-26 14:03:00,
2013-10-26 09:08:00,47.3,34.9,29.93,South,180,6.9,6.9,62,0.00,CLR,,0.00,WeatherDisplay:10.37,2013-10-26 14:08:00,
2013-10-26 09:13:00,47.5,35.1,29.93,WSW,248,15.0,15.0,62,0.00,CLR,,0.00,WeatherDisplay:10.37,2013-10-26 14:13:00,
2013-10-26 09:18:00,47.7,35.3,29.93,WNW,292,2.3,5.1,62,0.00,CLR,,0.00,WeatherDisplay:10.37,2013-10-26 14:18:00,
2013-10-26 09:23:00,47.7,35.3,29.91,WSW,248,11.5,11.5,62,0.00,CLR,,0.00,WeatherDisplay:10.37,2013-10-26 14:23:00,
2013-10-26 09:28:00,47.7,35.3,29.91,NW,315,6.9,6.9,62,0.00,CLR,,0.00,WeatherDisplay:10.37,2013-10-26 14:28:00,
2013-10-26 09:33:00,47.8,35.4,29.91,South,180,11.5,11.5,62,0.00,CLR,,0.00,WeatherDisplay:10.37,2013-10-26 14:33:00,
2013-10-26 09:38:00,48.4,36.0,29.91,South,180,3.5,4.5,62,0.00,CLR,,0.00,WeatherDisplay:10.37,2013-10-26 14:38:00,
2013-10-26 09:43:00,48.6,36.1,29.93,South,180,10.4,10.4,62,0.00,CLR,,0.00,WeatherDisplay:10.37,2013-10-26 14:43:00,
2013-10-26 09:48:00,49.3,36.4,29.93,SE,135,3.5,4.3,61,0.00,CLR,,0.00,WeatherDisplay:10.37,2013-10-26 14:48:00,
2013-10-26 09:53:00,49.3,36.4,29.93,NNW,338,9.2,9.2,61,0.00,CLR,,0.00,WeatherDisplay:10.37,2013-10-26 14:53:00,
2013-10-26 09:58:00,49.5,36.1,29.93,South,180,5.8,5.8,60,0.00,CLR,,0.00,WeatherDisplay:10.37,2013-10-26 14:58:00,
2013-10-26 10:03:00,49.3,36.0,29.93,WSW,248,11.5,11.5,60,0.00,CLR,,0.00,WeatherDisplay:10.37,2013-10-26 15:03:00,
2013-10-26 10:08:00,49.3,36.0,29.93,NW,315,5.8,5.8,60,0.00,CLR,,0.00,WeatherDisplay:10.37,2013-10-26 15:08:00,
2013-10-26 10:13:00,49.3,36.4,29.93,SSW,202,9.2,9.2,61,0.00,CLR,,0.00,WeatherDisplay:10.37,2013-10-26 15:13:00,
2013-10-26 10:18:00,50.2,37.2,29.93,NW,315,4.6,4.6,61,0.00,CLR,,0.00,WeatherDisplay:10.37,2013-10-26 15:18:00,
2013-10-26 10:23:00,50.7,37.8,29.91,WNW,292,6.9,6.9,61,0.00,CLR,,0.00,WeatherDisplay:10.37,2013-10-26 15:23:00,
2013-10-26 10:28:00,51.8,37.9,29.91,NW,315,3.5,4.5,59,0.00,CLR,,0.00,WeatherDisplay:10.37,2013-10-26 15:28:00,
2013-10-26 10:33:00,52.3,38.4,29.91,NW,315,9.2,9.2,59,0.00,CLR,,0.00,WeatherDisplay:10.37,2013-10-26 15:33:00,
2013-10-26 10:38:00,52.7,38.3,29.91,SSE,158,5.8,5.8,58,0.00,CLR,,0.00,WeatherDisplay:10.37,2013-10-26 15:38:00,
2013-10-26 10:43:00,53.1,38.7,29.92,NW,315,8.1,8.1,58,0.00,CLR,,0.00,WeatherDisplay:10.37,2013-10-26 15:43:00,
2013-10-26 10:48:00,53.6,39.2,29.92,West,270,4.6,5.1,58,0.00,CLR,,0.00,WeatherDisplay:10.37,2013-10-26 15:48:00,
2013-10-26 10:53:00,53.6,38.3,29.92,West,270,10.4,10.4,56,0.00,CLR,,0.00,WeatherDisplay:10.37,2013-10-26 15:53:00,
2013-10-26 10:58:00,53.8,38.9,29.92,SSW,202,8.1,8.1,57,0.00,CLR,,0.00,WeatherDisplay:10.37,2013-10-26 15:58:00,
2013-10-26 11:03:00,54.1,39.2,29.93,WSW,248,8.1,8.1,57,0.00,CLR,,0.00,WeatherDisplay:10.37,2013-10-26 16:03:00,
2013-10-26 11:08:00,54.3,39.4,29.93,ESE,112,3.5,4.7,57,0.00,CLR,,0.00,WeatherDisplay:10.37,2013-10-26 16:08:00,
2013-10-26 11:13:00,54.5,39.1,29.93,NNE,22,5.8,5.8,56,0.00,CLR,,0.00,WeatherDisplay:10.37,2013-10-26 16:13:00,
2013-10-26 11:18:00,54.9,39.5,29.93,SW,225,5.8,5.8,56,0.00,CLR,,0.00,WeatherDisplay:10.37,2013-10-26 16:18:00,
2013-10-26 11:23:00,55.4,40.0,29.93,SW,225,6.9,6.9,56,0.00,CLR,,0.00,WeatherDisplay:10.37,2013-10-26 16:23:00,
2013-10-26 11:28:00,55.8,39.8,29.93,WSW,248,6.9,6.9,55,0.00,CLR,,0.00,WeatherDisplay:10.37,2013-10-26 16:28:00,
2013-10-26 11:33:00,56.1,39.7,29.93,NNW,338,11.5,11.5,54,0.00,CLR,,0.00,WeatherDisplay:10.37,2013-10-26 16:33:00,
2013-10-26 11:38:00,56.5,40.5,29.93,WSW,248,6.9,6.9,55,0.00,CLR,,0.00,WeatherDisplay:10.37,2013-10-26 16:38:00,
2013-10-26 11:43:00,56.7,40.2,29.93,WSW,248,3.5,4.1,54,0.00,CLR,,0.00,WeatherDisplay:10.37,2013-10-26 16:43:00,
2013-10-26 11:48:00,56.3,39.9,29.93,NNW,338,9.2,9.2,54,0.00,CLR,,0.00,WeatherDisplay:10.37,2013-10-26 16:48:00,
2013-10-26 11:53:00,56.3,40.3,29.93,NW,315,6.9,6.9,55,0.00,CLR,,0.00,WeatherDisplay:10.37,2013-10-26 16:53:00,
2013-10-26 11:58:00,57.0,41.0,29.93,North,0,4.6,4.6,55,0.00,CLR,,0.00,WeatherDisplay:10.37,2013-10-26 16:58:00,
2013-10-26 12:03:00,57.2,41.2,29.94,NW,315,6.9,6.9,55,0.00,CLR,,0.00,WeatherDisplay:10.37,2013-10-26 17:03:00,
2013-10-26 12:08:00,57.2,41.2,29.94,NW,315,6.9,6.9,55,0.00,CLR,,0.00,WeatherDisplay:10.37,2013-10-26 17:08:00,
2013-10-26 12:13:00,58.6,41.5,29.94,NNW,338,9.2,9.2,53,0.00,CLR,,0.00,WeatherDisplay:10.37,2013-10-26 17:13:00,
2013-10-26 12:18:00,58.5,40.9,29.94,NNW,338,10.4,10.4,52,0.00,CLR,,0.00,WeatherDisplay:10.37,2013-10-26 17:18:00,
2013-10-26 12:23:00,58.5,40.9,29.92,SSE,158,8.1,8.1,52,0.00,CLR,,0.00,WeatherDisplay:10.37,2013-10-26 17:23:00,
2013-10-26 12:28:00,58.5,40.4,29.92,NW,315,4.6,4.9,51,0.00,CLR,,0.00,WeatherDisplay:10.37,2013-10-26 17:28:00,
2013-10-26 12:33:00,57.4,39.9,29.92,West,270,4.6,4.6,52,0.00,CLR,,0.00,WeatherDisplay:10.37,2013-10-26 17:33:00,
2013-10-26 12:38:00,57.2,40.2,29.92,SSE,158,8.1,8.1,53,0.00,CLR,,0.00,WeatherDisplay:10.37,2013-10-26 17:38:00,
2013-10-26 12:43:00,57.0,40.0,29.93,NW,315,10.4,10.4,53,0.00,CLR,,0.00,WeatherDisplay:10.37,2013-10-26 17:43:00,
2013-10-26 12:48:00,56.5,40.0,29.93,NW,315,9.4,9.4,54,0.00,CLR,,0.00,WeatherDisplay:10.37,2013-10-26 17:48:00,
2013-10-26 12:53:00,56.3,39.4,29.93,NW,315,6.9,6.9,53,0.00,CLR,,0.00,WeatherDisplay:10.37,2013-10-26 17:53:00,
2013-10-26 12:58:00,56.3,40.3,29.93,WSW,248,9.2,9.2,55,0.00,CLR,,0.00,WeatherDisplay:10.37,2013-10-26 17:58:00,
2013-10-26 13:03:00,56.5,40.0,29.93,NW,315,9.2,9.2,54,0.00,CLR,,0.00,WeatherDisplay:10.37,2013-10-26 18:03:00,
2013-10-26 13:08:00,56.1,39.7,29.93,NW,315,9.5,9.5,54,0.00,CLR,,0.00,WeatherDisplay:10.37,2013-10-26 18:08:00,
2013-10-26 13:13:00,55.9,40.0,29.93,NNW,338,4.6,5.2,55,0.00,CLR,,0.00,WeatherDisplay:10.37,2013-10-26 18:13:00,
2013-10-26 13:18:00,55.6,40.6,29.93,WSW,248,2.3,4.0,57,0.00,CLR,,0.00,WeatherDisplay:10.37,2013-10-26 18:18:00,
2013-10-26 13:23:00,55.2,40.2,29.94,WNW,292,8.1,8.1,57,0.00,CLR,,0.00,WeatherDisplay:10.37,2013-10-26 18:23:00,
2013-10-26 13:28:00,54.9,39.9,29.94,NW,315,6.9,6.9,57,0.00,CLR,,0.00,WeatherDisplay:10.37,2013-10-26 18:28:00,
2013-10-26 13:33:00,54.9,40.4,29.94,SW,225,6.9,6.9,58,0.00,CLR,,0.00,WeatherDisplay:10.37,2013-10-26 18:33:00,
2013-10-26 13:38:00,55.0,40.5,29.94,NW,315,7.0,7.0,58,0.00,CLR,,0.00,WeatherDisplay:10.37,2013-10-26 18:38:00,
2013-10-26 13:43:00,55.2,40.2,29.95,North,0,12.0,12.0,57,0.00,CLR,,0.00,WeatherDisplay:10.37,2013-10-26 18:43:00,
2013-10-26 13:48:00,54.7,39.7,29.95,WSW,248,6.9,6.9,57,0.00,CLR,,0.00,WeatherDisplay:10.37,2013-10-26 18:48:00,
2013-10-26 13:53:00,54.3,39.8,29.95,NW,315,10.4,10.4,58,0.00,CLR,,0.00,WeatherDisplay:10.37,2013-10-26 18:53:00,
2013-10-26 13:58:00,54.1,40.1,29.95,WNW,292,8.1,8.1,59,0.00,CLR,,0.00,WeatherDisplay:10.37,2013-10-26 18:58:00,
2013-10-26 14:03:00,54.1,40.1,29.95,NW,315,5.8,5.8,59,0.00,CLR,,0.00,WeatherDisplay:10.37,2013-10-26 19:03:00,
2013-10-26 14:08:00,54.1,40.1,29.95,NW,315,7.5,7.5,59,0.00,CLR,,0.00,WeatherDisplay:10.37,2013-10-26 19:08:00,
2013-10-26 14:13:00,54.3,40.3,29.95,WNW,292,4.6,4.6,59,0.00,CLR,,0.00,WeatherDisplay:10.37,2013-10-26 19:13:00,
2013-10-26 14:18:00,54.3,40.3,29.95,NNW,338,2.4,2.4,59,0.00,CLR,,0.00,WeatherDisplay:10.37,2013-10-26 19:18:00,
2013-10-26 14:23:00,54.3,40.3,29.92,ENE,68,9.2,9.2,59,0.00,CLR,,0.00,WeatherDisplay:10.37,2013-10-26 19:23:00,
2013-10-26 14:28:00,54.1,40.6,29.92,WSW,248,2.3,3.1,60,0.00,CLR,,0.00,WeatherDisplay:10.37,2013-10-26 19:28:00,
2013-10-26 14:33:00,54.7,40.2,29.92,NNW,338,12.7,12.7,58,0.00,CLR,,0.00,WeatherDisplay:10.37,2013-10-26 19:33:00,
2013-10-26 14:38:00,54.9,40.4,29.92,NNE,22,4.6,4.6,58,0.00,CLR,,0.00,WeatherDisplay:10.37,2013-10-26 19:38:00,
2013-10-26 14:43:00,54.7,40.2,29.95,NW,315,6.9,6.9,58,0.00,CLR,,0.00,WeatherDisplay:10.37,2013-10-26 19:43:00,
2013-10-26 14:48:00,54.5,40.0,29.95,NNE,22,5.8,5.8,58,0.00,CLR,,0.00,WeatherDisplay:10.37,2013-10-26 19:48:00,
2013-10-26 14:53:00,54.3,39.8,29.95,WNW,292,5.8,5.8,58,0.00,CLR,,0.00,WeatherDisplay:10.37,2013-10-26 19:53:00,
2013-10-26 14:58:00,54.5,39.1,29.95,NW,315,8.1,8.1,56,0.00,CLR,,0.00,WeatherDisplay:10.37,2013-10-26 19:58:00,
2013-10-26 15:03:00,54.5,39.6,29.95,North,0,5.8,5.8,57,0.00,CLR,,0.00,WeatherDisplay:10.37,2013-10-26 20:03:00,
2013-10-26 15:08:00,54.5,39.1,29.95,WNW,292,4.6,4.6,56,0.00,CLR,,0.00,WeatherDisplay:10.37,2013-10-26 20:08:00,
2013-10-26 15:13:00,54.5,39.1,29.95,NNW,338,6.9,6.9,56,0.00,CLR,,0.00,WeatherDisplay:10.37,2013-10-26 20:13:00,
2013-10-26 15:18:00,54.3,38.9,29.95,NNW,338,5.8,5.8,56,0.00,CLR,,0.00,WeatherDisplay:10.37,2013-10-26 20:18:00,
2013-10-26 15:23:00,54.5,38.7,29.95,NW,315,6.9,6.9,55,0.00,CLR,,0.00,WeatherDisplay:10.37,2013-10-26 20:23:00,
2013-10-26 15:28:00,54.5,38.2,29.95,West,270,8.1,8.1,54,0.00,CLR,,0.00,WeatherDisplay:10.37,2013-10-26 20:28:00,
2013-10-26 15:33:00,54.5,38.2,29.95,NW,315,8.1,8.1,54,0.00,CLR,,0.00,WeatherDisplay:10.37,2013-10-26 20:33:00,
2013-10-26 15:38:00,54.3,38.0,29.95,West,270,2.3,4.5,54,0.00,CLR,,0.00,WeatherDisplay:10.37,2013-10-26 20:38:00,
2013-10-26 15:43:00,54.5,38.2,29.95,NW,315,5.8,5.8,54,0.00,CLR,,0.00,WeatherDisplay:10.37,2013-10-26 20:43:00,
2013-10-26 15:48:00,54.1,37.8,29.95,NW,315,9.2,9.2,54,0.00,CLR,,0.00,WeatherDisplay:10.37,2013-10-26 20:48:00,
2013-10-26 15:53:00,54.1,37.8,29.95,NNE,22,3.5,4.0,54,0.00,CLR,,0.00,WeatherDisplay:10.37,2013-10-26 20:53:00,
2013-10-26 15:58:00,54.1,37.4,29.95,NW,315,5.8,5.8,53,0.00,CLR,,0.00,WeatherDisplay:10.37,2013-10-26 20:58:00,
2013-10-26 16:03:00,54.1,37.4,29.99,NW,315,5.9,5.9,53,0.00,CLR,,0.00,WeatherDisplay:10.37,2013-10-26 21:03:00,
2013-10-26 16:08:00,54.1,37.4,29.99,SE,135,10.4,10.4,53,0.00,CLR,,0.00,WeatherDisplay:10.37,2013-10-26 21:08:00,
2013-10-26 16:13:00,54.0,37.7,29.99,NW,315,3.5,4.3,54,0.00,CLR,,0.00,WeatherDisplay:10.37,2013-10-26 21:13:00,
2013-10-26 16:18:00,53.8,38.0,29.99,West,270,2.3,2.5,55,0.00,CLR,,0.00,WeatherDisplay:10.37,2013-10-26 21:18:00,
2013-10-26 16:23:00,53.8,38.0,29.98,WNW,292,5.8,5.8,55,0.00,CLR,,0.00,WeatherDisplay:10.37,2013-10-26 21:23:00,
2013-10-26 16:28:00,53.4,38.1,29.98,NW,315,8.1,8.1,56,0.00,CLR,,0.00,WeatherDisplay:10.37,2013-10-26 21:28:00,
2013-10-26 16:33:00,53.4,38.1,29.98,WNW,292,6.9,6.9,56,0.00,CLR,,0.00,WeatherDisplay:10.37,2013-10-26 21:33:00,
2013-10-26 16:38:00,52.9,37.6,29.98,ENE,68,2.3,3.5,56,0.00,CLR,,0.00,WeatherDisplay:10.37,2013-10-26 21:38:00,
2013-10-26 16:43:00,52.7,37.4,29.96,NNE,22,5.8,5.8,56,0.00,CLR,,0.00,WeatherDisplay:10.37,2013-10-26 21:43:00,
2013-10-26 16:48:00,52.7,37.4,29.96,NW,315,3.5,3.5,56,0.00,CLR,,0.00,WeatherDisplay:10.37,2013-10-26 21:48:00,
2013-10-26 16:53:00,52.7,37.4,29.96,NE,45,4.6,4.6,56,0.00,CLR,,0.00,WeatherDisplay:10.37,2013-10-26 21:53:00,
2013-10-26 16:58:00,52.7,37.4,29.96,NE,45,3.5,3.5,56,0.00,CLR,,0.00,WeatherDisplay:10.37,2013-10-26 21:58:00,
2013-10-26 17:03:00,52.3,37.1,29.97,NNW,338,8.1,8.1,56,0.00,CLR,,0.00,WeatherDisplay:10.37,2013-10-26 22:03:00,
2013-10-26 17:08:00,52.2,36.9,29.97,North,0,3.5,3.5,56,0.00,CLR,,0.00,WeatherDisplay:10.37,2013-10-26 22:08:00,
2013-10-26 17:13:00,52.2,36.5,29.97,NW,315,6.9,6.9,55,0.00,CLR,,0.00,WeatherDisplay:10.37,2013-10-26 22:13:00,
2013-10-26 17:18:00,52.2,36.5,29.97,NE,45,5.8,5.8,55,0.00,CLR,,0.00,WeatherDisplay:10.37,2013-10-26 22:18:00,
2013-10-26 17:23:00,52.0,35.8,29.98,NW,315,5.8,5.8,54,0.00,CLR,,0.00,WeatherDisplay:10.37,2013-10-26 22:23:00,
2013-10-26 17:28:00,52.0,35.8,29.98,NW,315,2.3,3.3,54,0.00,CLR,,0.00,WeatherDisplay:10.37,2013-10-26 22:28:00,
2013-10-26 17:33:00,52.0,35.8,29.98,WNW,292,8.1,8.1,54,0.00,CLR,,0.00,WeatherDisplay:10.37,2013-10-26 22:33:00,
2013-10-26 17:38:00,52.0,36.3,29.98,ESE,112,4.6,4.6,55,0.00,CLR,,0.00,WeatherDisplay:10.37,2013-10-26 22:38:00,
2013-10-26 17:43:00,52.0,36.3,29.99,NNW,338,4.6,4.6,55,0.00,CLR,,0.00,WeatherDisplay:10.37,2013-10-26 22:43:00,
2013-10-26 17:48:00,51.8,36.6,29.99,West,270,2.3,2.9,56,0.00,CLR,,0.00,WeatherDisplay:10.37,2013-10-26 22:48:00,
2013-10-26 17:53:00,51.6,36.4,29.99,West,270,3.5,3.5,56,0.00,CLR,,0.00,WeatherDisplay:10.37,2013-10-26 22:53:00,
2013-10-26 17:58:00,51.3,36.1,29.99,NNW,338,2.3,2.5,56,0.00,CLR,,0.00,WeatherDisplay:10.37,2013-10-26 22:58:00,
2013-10-26 18:03:00,50.7,35.6,29.99,NNE,22,4.6,4.6,56,0.00,CLR,,0.00,WeatherDisplay:10.37,2013-10-26 23:03:00,
2013-10-26 18:08:00,50.5,35.9,29.99,NW,315,2.3,2.3,57,0.00,CLR,,0.00,WeatherDisplay:10.37,2013-10-26 23:08:00,
2013-10-26 18:13:00,50.2,35.5,29.99,NNW,338,6.9,6.9,57,0.00,CLR,,0.00,WeatherDisplay:10.37,2013-10-26 23:13:00,
2013-10-26 18:18:00,50.0,35.4,29.99,NE,45,2.3,2.5,57,0.00,CLR,,0.00,WeatherDisplay:10.37,2013-10-26 23:18:00,
2013-10-26 18:23:00,50.0,35.4,30.00,NE,45,4.6,4.6,57,0.00,CLR,,0.00,WeatherDisplay:10.37,2013-10-26 23:23:00,
2013-10-26 18:28:00,49.8,35.2,30.00,NNW,338,2.3,3.0,57,0.00,CLR,,0.00,WeatherDisplay:10.37,2013-10-26 23:28:00,
2013-10-26 18:33:00,49.8,35.2,30.00,NNE,22,6.9,6.9,57,0.00,CLR,,0.00,WeatherDisplay:10.37,2013-10-26 23:33:00,
2013-10-26 18:38:00,49.8,34.7,30.00,WNW,292,4.6,4.6,56,0.00,CLR,,0.00,WeatherDisplay:10.37,2013-10-26 23:38:00,
2013-10-26 18:43:00,49.6,34.6,30.01,NW,315,4.6,4.6,56,0.00,CLR,,0.00,WeatherDisplay:10.37,2013-10-26 23:43:00,
2013-10-26 18:48:00,49.5,34.4,30.01,NNE,22,1.2,2.8,56,0.00,CLR,,0.00,WeatherDisplay:10.37,2013-10-26 23:48:00,
2013-10-26 18:53:00,49.3,33.8,30.01,NW,315,2.3,2.3,55,0.00,CLR,,0.00,WeatherDisplay:10.37,2013-10-26 23:53:00,
2013-10-26 18:58:00,49.1,33.6,30.01,NNW,338,2.8,2.8,55,0.00,CLR,,0.00,WeatherDisplay:10.37,2013-10-26 23:58:00,
2013-10-26 19:03:00,49.1,34.1,30.02,ESE,112,2.3,2.3,56,0.00,CLR,,0.00,WeatherDisplay:10.37,2013-10-27 00:03:00,
2013-10-26 19:08:00,48.9,33.9,30.02,NW,315,1.2,2.2,56,0.00,CLR,,0.00,WeatherDisplay:10.37,2013-10-27 00:08:00,
2013-10-26 19:13:00,49.1,34.1,30.02,West,270,4.6,4.6,56,0.00,CLR,,0.00,WeatherDisplay:10.37,2013-10-27 00:13:00,
2013-10-26 19:18:00,49.1,34.5,30.02,NW,315,5.8,5.8,57,0.00,CLR,,0.00,WeatherDisplay:10.37,2013-10-27 00:18:00,
2013-10-26 19:23:00,48.9,34.3,30.02,WNW,292,2.3,2.4,57,0.00,CLR,,0.00,WeatherDisplay:10.37,2013-10-27 00:23:00,
2013-10-26 19:28:00,48.6,34.0,30.02,NNW,338,6.9,6.9,57,0.00,CLR,,0.00,WeatherDisplay:10.37,2013-10-27 00:28:00,
2013-10-26 19:33:00,48.4,33.8,30.02,West,270,5.8,5.8,57,0.00,CLR,,0.00,WeatherDisplay:10.37,2013-10-27 00:33:00,
2013-10-26 19:38:00,48.4,33.4,30.02,NNW,338,2.3,2.3,56,0.00,CLR,,0.00,WeatherDisplay:10.37,2013-10-27 00:38:00,
2013-10-26 19:43:00,48.4,33.4,30.03,NNW,338,6.9,6.9,56,0.00,CLR,,0.00,WeatherDisplay:10.37,2013-10-27 00:43:00,
2013-10-26 19:48:00,48.2,33.2,30.03,NW,315,2.3,2.3,56,0.00,CLR,,0.00,WeatherDisplay:10.37,2013-10-27 00:48:00,
2013-10-26 19:53:00,48.4,33.4,30.03,NNW,338,2.3,2.6,56,0.00,CLR,,0.00,WeatherDisplay:10.37,2013-10-27 00:53:00,
2013-10-26 19:58:00,48.4,33.4,30.03,NW,315,1.2,2.6,56,0.00,CLR,,0.00,WeatherDisplay:10.37,2013-10-27 00:58:00,
2013-10-26 20:03:00,48.4,33.4,30.03,NW,315,3.7,3.7,56,0.00,CLR,,0.00,WeatherDisplay:10.37,2013-10-27 01:03:00,
2013-10-26 20:08:00,48.4,33.8,30.03,WNW,292,4.6,4.6,57,0.00,CLR,,0.00,WeatherDisplay:10.37,2013-10-27 01:08:00,
2013-10-26 20:13:00,48.4,33.8,30.03,NW,315,4.6,4.6,57,0.00,CLR,,0.00,WeatherDisplay:10.37,2013-10-27 01:13:00,
2013-10-26 20:18:00,48.2,33.7,30.03,NNE,22,4.6,4.6,57,0.00,CLR,,0.00,WeatherDisplay:10.37,2013-10-27 01:18:00,
2013-10-26 20:23:00,48.0,33.5,30.03,NW,315,4.6,4.6,57,0.00,CLR,,0.00,WeatherDisplay:10.37,2013-10-27 01:23:00,
2013-10-26 20:28:00,48.4,33.8,30.03,WNW,292,4.8,4.8,57,0.00,CLR,,0.00,WeatherDisplay:10.37,2013-10-27 01:28:00,
2013-10-26 20:33:00,48.4,33.8,30.03,NW,315,4.6,4.6,57,0.00,CLR,,0.00,WeatherDisplay:10.37,2013-10-27 01:33:00,
2013-10-26 20:38:00,48.4,33.8,30.03,NW,315,4.9,4.9,57,0.00,CLR,,0.00,WeatherDisplay:10.37,2013-10-27 01:38:00,
2013-10-26 20:43:00,48.2,33.7,30.03,ENE,68,2.5,2.6,57,0.00,CLR,,0.00,WeatherDisplay:10.37,2013-10-27 01:43:00,
2013-10-26 20:48:00,48.2,33.7,30.03,NE,45,6.9,6.9,57,0.00,CLR,,0.00,WeatherDisplay:10.37,2013-10-27 01:48:00,
2013-10-26 20:53:00,48.0,33.5,30.03,NNW,338,4.6,4.6,57,0.00,CLR,,0.00,WeatherDisplay:10.37,2013-10-27 01:53:00,
2013-10-26 20:58:00,48.4,33.8,30.03,NW,315,1.2,2.9,57,0.00,CLR,,0.00,WeatherDisplay:10.37,2013-10-27 01:58:00,
2013-10-26 21:03:00,48.4,33.4,30.03,NW,315,2.8,2.8,56,0.00,CLR,,0.00,WeatherDisplay:10.37,2013-10-27 02:03:00,
2013-10-26 21:08:00,48.2,33.2,30.03,North,0,4.6,4.6,56,0.00,CLR,,0.00,WeatherDisplay:10.37,2013-10-27 02:08:00,
2013-10-26 21:13:00,48.4,33.4,30.03,NW,315,6.9,6.9,56,0.00,CLR,,0.00,WeatherDisplay:10.37,2013-10-27 02:13:00,
2013-10-26 21:18:00,48.4,33.4,30.03,WSW,248,2.3,2.9,56,0.00,CLR,,0.00,WeatherDisplay:10.37,2013-10-27 02:18:00,
2013-10-26 21:23:00,48.4,33.4,30.05,NW,315,3.5,3.5,56,0.00,CLR,,0.00,WeatherDisplay:10.37,2013-10-27 02:23:00,
2013-10-26 21:28:00,48.2,33.2,30.05,West,270,6.9,6.9,56,0.00,CLR,,0.00,WeatherDisplay:10.37,2013-10-27 02:28:00,
2013-10-26 21:33:00,48.4,33.4,30.05,North,0,4.6,4.6,56,0.00,CLR,,0.00,WeatherDisplay:10.37,2013-10-27 02:33:00,
2013-10-26 21:38:00,48.0,33.1,30.05,NNW,338,4.6,4.6,56,0.00,CLR,,0.00,WeatherDisplay:10.37,2013-10-27 02:38:00,
2013-10-26 21:43:00,47.8,32.9,30.06,SSE,158,1.5,2.4,56,0.00,CLR,,0.00,WeatherDisplay:10.37,2013-10-27 02:43:00,
2013-10-26 21:48:00,47.7,33.2,30.06,WNW,292,3.5,3.5,57,0.00,CLR,,0.00,WeatherDisplay:10.37,2013-10-27 02:48:00,
2013-10-26 21:53:00,47.7,33.2,30.06,ENE,68,2.3,2.3,57,0.00,CLR,,0.00,WeatherDisplay:10.37,2013-10-27 02:53:00,
2013-10-26 21:58:00,47.3,32.8,30.06,NNW,338,5.8,5.8,57,0.00,CLR,,0.00,WeatherDisplay:10.37,2013-10-27 02:58:00,
2013-10-26 22:03:00,47.3,33.3,30.06,WNW,292,3.5,3.5,58,0.00,CLR,,0.00,WeatherDisplay:10.37,2013-10-27 03:03:00,
2013-10-26 22:08:00,47.3,33.3,30.06,NNW,338,3.5,3.5,58,0.00,CLR,,0.00,WeatherDisplay:10.37,2013-10-27 03:08:00,
2013-10-26 22:13:00,47.3,33.3,30.06,NW,315,3.5,3.5,58,0.00,CLR,,0.00,WeatherDisplay:10.37,2013-10-27 03:13:00,
2013-10-26 22:18:00,47.7,33.6,30.06,ENE,68,2.3,2.4,58,0.00,CLR,,0.00,WeatherDisplay:10.37,2013-10-27 03:18:00,
2013-10-26 22:23:00,47.1,33.1,30.06,NNW,338,2.3,2.3,58,0.00,CLR,,0.00,WeatherDisplay:10.37,2013-10-27 03:23:00,
2013-10-26 22:28:00,46.9,32.9,30.06,WNW,292,4.6,4.6,58,0.00,CLR,,0.00,WeatherDisplay:10.37,2013-10-27 03:28:00,
2013-10-26 22:33:00,46.9,33.3,30.06,NW,315,3.5,3.5,59,0.00,CLR,,0.00,WeatherDisplay:10.37,2013-10-27 03:33:00,
2013-10-26 22:38:00,46.6,33.0,30.06,WNW,292,4.6,4.6,59,0.00,CLR,,0.00,WeatherDisplay:10.37,2013-10-27 03:38:00,
2013-10-26 22:43:00,46.6,33.4,30.06,WNW,292,2.3,2.3,60,0.00,CLR,,0.00,WeatherDisplay:10.37,2013-10-27 03:43:00,
2013-10-26 22:48:00,46.0,32.9,30.06,WSW,248,1.5,1.5,60,0.00,CLR,,0.00,WeatherDisplay:10.37,2013-10-27 03:48:00,
2013-10-26 22:53:00,45.5,32.8,30.06,WSW,248,2.3,2.3,61,0.00,CLR,,0.00,WeatherDisplay:10.37,2013-10-27 03:53:00,
2013-10-26 22:58:00,44.8,32.5,30.06,SSW,202,0.0,0.8,62,0.00,CLR,,0.00,WeatherDisplay:10.37,2013-10-27 03:58:00,
2013-10-26 23:01:00,44.4,32.2,30.06,South,180,0.0,0.7,62,0.00,CLR,,0.00,WeatherDisplay:10.37,2013-10-27 04:01:00,
2013-10-26 23:06:00,43.7,31.9,30.07,South,180,1.2,1.2,63,0.00,CLR,,0.00,WeatherDisplay:10.37,2013-10-27 04:06:00,
2013-10-26 23:11:00,43.0,31.6,30.07,SW,225,1.2,1.2,64,0.00,CLR,,0.00,WeatherDisplay:10.37,2013-10-27 04:11:00,
2013-10-26 23:16:00,42.3,31.3,30.07,South,180,0.0,0.1,65,0.00,CLR,,0.00,WeatherDisplay:10.37,2013-10-27 04:16:00,
2013-10-26 23:21:00,41.9,31.4,30.07,SSE,158,0.0,0.0,66,0.00,CLR,,0.00,WeatherDisplay:10.37,2013-10-27 04:21:00,
2013-10-26 23:26:00,41.4,31.2,30.06,SW,225,1.2,1.2,67,0.00,CLR,,0.00,WeatherDisplay:10.37,2013-10-27 04:26:00,
2013-10-26 23:31:00,41.2,31.4,30.06,South,180,0.0,0.2,68,0.00,CLR,,0.00,WeatherDisplay:10.37,2013-10-27 04:31:00,
2013-10-26 23:36:00,40.6,31.6,30.06,SW,225,1.2,1.2,70,0.00,CLR,,0.00,WeatherDisplay:10.37,2013-10-27 04:36:00,
2013-10-26 23:41:00,40.5,31.4,30.06,South,180,1.2,1.2,70,0.00,CLR,,0.00,WeatherDisplay:10.37,2013-10-27 04:41:00,
2013-10-26 23:46:00,39.9,31.3,30.05,SSW,202,0.0,0.6,71,0.00,CLR,,0.00,WeatherDisplay:10.37,2013-10-27 04:46:00,
2013-10-26 23:51:00,39.7,31.4,30.05,South,180,0.0,0.5,72,0.00,CLR,,0.00,WeatherDisplay:10.37,2013-10-27 04:51:00,
2013-10-26 23:56:00,39.4,31.1,30.05,SE,135,0.0,0.1,72,0.00,CLR,,0.00,WeatherDisplay:10.37,2013-10-27 04:56:00,